Powrót do katalogu

STARLINK-4726

AktywnyŁącznośćVLEO
NORAD 53802·PAYLOAD·🇺🇸 United States

Wystrzelony Sep 11, 2022 z Cape Canaveral Space Force Station

Loading…

Następne Przeloty (najbliższe 24 godziny)

TLE

ŚwieżeSource: CelesTrak SupGP

Epoka: Sep 15, 2026, 01:22 UTC

1 53802C 22111AF  26258.05743056  .00049147  00000+0  14521-2 0  2585
2 53802  53.1577 118.8769 0001362  79.2808 196.5732 15.34364421    11

Śledź STARLINK-4726 w czasie rzeczywistym z AllMySat

Download on the App Store